Location: Seattle
(47.6064°N, 122.3308°W)
Time: 01:11:39
(UTC-08:00)

Tiros 1 - Pass Details

Date: 01 December 2020
Orbit: 630 x 663 km, 48.4° (Epoch: 28 January)

Event Time Altitude Azimuth Distance (km) Brightness Sun altitude
Rises 21:15:54 0° 280° (W) 2,980 11.2 -48.6°
Enters shadow 21:16:06 - 279° (W) 2,914 11.1 -48.7°
Reaches altitude 10° 21:19:27 10° 253° (WSW) 2,056 - -49.2°
Maximum altitude 21:21:35 13° 226° (SW) 1,853 - -49.5°
Drops below altitude 10° 21:23:43 10° 199° (SSW) 2,040 - -49.8°
Sets 21:27:14 0° 171° (S) 2,936 - -50.4°
